Oscoda, MI

8:22 PM EST on December 03, 2016 (GMT -0500)
Oscoda-Wurtsmith

Weather History for KOSC - January, 2013

Change the Weather History Date:

Friday, January 4, 2013

  Actual Average Record
Temperature  
Mean Temperature 28 °F -  
Max Temperature 32 °F 28 °F 48 °F (2007)
Min Temperature 22 °F 15 °F 1 °F (2016)
Degree Days  
Heating Degree Days 38    
Moisture  
Dew Point 19 °F    
Average Humidity 72    
Maximum Humidity 87    
Minimum Humidity 62    
Precipitation  
Precipitation 0.00 in - - ()
Sea Level Pressure  
Sea Level Pressure 29.90 in    
Wind  
Wind Speed 18 mph (WSW)    
Max Wind Speed 25 mph    
Max Gust Speed 33 mph    
Visibility 10 miles    
Events      
Averages and records for this station are not official NWS values.
T = Trace of Precipitation, MM = Missing Value Source: NWS Daily Summary

Daily Weather History Graph

Daily Weather History Graph

Search for Another Location

Airport or City:

Trip Planner

Search our weather history database for the weather conditions in past years. The results will help you decide how hot, cold, wet, or windy it might be!

Date:

Astronomy

Jan. 04, 2013 Rise Set
Actual Time 8:09 AM EST 5:07 PM EST
Civil Twilight 7:36 AM EST 5:40 PM EST
Nautical Twilight 7:00 AM EST 6:17 PM EST
Astronomical Twilight 6:25 AM EST 6:52 PM EST
Moon No Moon Rise 11:33 AM EST
Length of Visible Light 10h 04m
Length of Day
8h 57m
Waning Gibbous, 55% of the Moon is Illuminated
Jan 4
Waning Gibbous
Jan 4
Last Quarter
Jan 11
New
Jan 18
First Quarter
Jan 26
Full

Hourly Weather History & Observations

Time (EST) Temp. Windchill Dew Point Humidity Pressure Visibility Wind Dir Wind Speed Gust Speed Precip Events Conditions
12:14 AM 27.3 °F 15.2 °F 19.9 °F 74% 29.95 in 10.0 mi WSW 16.1 mph 25.3 mph N/A   Overcast
12:34 AM 27.3 °F 14.4 °F 19.9 °F 74% 29.94 in 10.0 mi WSW 18.4 mph 25.3 mph N/A   Overcast
12:53 AM 27.1 °F 14.9 °F 19.4 °F 73% 29.92 in 10.0 mi WSW 16.1 mph 28.8 mph N/A   Mostly Cloudy
1:14 AM 26.8 °F 12.9 °F 19.4 °F 74% 29.92 in 10.0 mi WSW 20.7 mph - N/A   Scattered Clouds
1:33 AM 26.6 °F 14.3 °F 19.4 °F 74% 29.91 in 10.0 mi WSW 16.1 mph 20.7 mph N/A   Mostly Cloudy
1:53 AM 26.2 °F 14.2 °F 19.9 °F 77% 29.90 in 10.0 mi WSW 15.0 mph 21.9 mph N/A   Mostly Cloudy
2:14 AM 26.6 °F 15.7 °F 20.1 °F 77% 29.90 in 10.0 mi WSW 12.7 mph - N/A   Scattered Clouds
2:33 AM 26.6 °F 13.8 °F 19.6 °F 75% 29.90 in 10.0 mi WSW 17.3 mph 29.9 mph N/A   Mostly Cloudy
2:53 AM 26.6 °F 13.4 °F 19.4 °F 74% 29.90 in 10.0 mi WSW 18.4 mph 25.3 mph N/A   Scattered Clouds
3:14 AM 26.6 °F 13.1 °F 19.9 °F 76% 29.88 in 10.0 mi WSW 19.6 mph 27.6 mph N/A   Scattered Clouds
3:33 AM 27.0 °F 12.8 °F 19.9 °F 75% 29.88 in 10.0 mi WSW 21.9 mph 27.6 mph N/A   Clear
3:54 AM 27.0 °F 12.2 °F 19.6 °F 74% 29.86 in 10.0 mi WSW 24.2 mph 29.9 mph N/A   Clear
4:14 AM 27.1 °F 13.1 °F 19.4 °F 73% 29.84 in 10.0 mi SW 21.9 mph 29.9 mph N/A   Clear
4:33 AM 27.1 °F 13.1 °F 19.4 °F 73% 29.85 in 10.0 mi WSW 21.9 mph 31.1 mph N/A   Clear
4:54 AM 27.1 °F 12.1 °F 19.6 °F 73% 29.84 in 10.0 mi WSW 25.3 mph 31.1 mph N/A   Clear
5:14 AM 27.1 °F 12.7 °F 19.4 °F 73% 29.84 in 10.0 mi WSW 23.0 mph 33.4 mph N/A   Clear
5:33 AM 27.1 °F 12.7 °F 19.4 °F 73% 29.83 in 10.0 mi SW 23.0 mph 32.2 mph N/A   Clear
5:54 AM 26.6 °F 11.7 °F 18.5 °F 71% 29.83 in 10.0 mi SW 24.2 mph 32.2 mph N/A   Clear
6:14 AM 26.2 °F 12.2 °F 18.3 °F 72% 29.84 in 10.0 mi WSW 20.7 mph 29.9 mph N/A   Clear
6:33 AM 26.2 °F 11.5 °F 17.6 °F 70% 29.84 in 10.0 mi WSW 23.0 mph 28.8 mph N/A   Clear
6:54 AM 26.2 °F 10.9 °F 17.6 °F 70% 29.83 in 10.0 mi WSW 25.3 mph 32.2 mph N/A   Clear
7:13 AM 25.7 °F 10.2 °F 17.4 °F 71% 29.84 in 10.0 mi WSW 25.3 mph 31.1 mph N/A   Clear
7:33 AM 25.5 °F 12.0 °F 17.2 °F 71% 29.84 in 10.0 mi WSW 18.4 mph 27.6 mph N/A   Clear
7:54 AM 25.3 °F 11.8 °F 17.1 °F 71% 29.85 in 10.0 mi WSW 18.4 mph 25.3 mph N/A   Clear
8:13 AM 25.2 °F 11.2 °F 17.1 °F 71% 29.84 in 10.0 mi WSW 19.6 mph 25.3 mph N/A   Clear
8:34 AM 24.8 °F 11.5 °F 17.1 °F 72% 29.84 in 10.0 mi WSW 17.3 mph 27.6 mph N/A   Clear
8:54 AM 25.3 °F 12.6 °F 17.4 °F 72% 29.85 in 10.0 mi WSW 16.1 mph 23.0 mph N/A   Clear
9:13 AM 26.2 °F 12.6 °F 17.6 °F 70% 29.85 in 10.0 mi WSW 19.6 mph 23.0 mph N/A   Clear
9:34 AM 27.0 °F 14.7 °F 18.1 °F 69% 29.86 in 10.0 mi WSW 16.1 mph 24.2 mph N/A   Clear
9:54 AM 26.2 °F 14.2 °F 17.6 °F 70% 29.88 in 10.0 mi West 15.0 mph - N/A   Clear
10:13 AM 26.2 °F 16.4 °F 17.8 °F 70% 29.89 in 10.0 mi West 10.4 mph - N/A   Clear
10:34 AM 28.9 °F 17.7 °F 18.9 °F 66% 29.89 in 10.0 mi WSW 15.0 mph 20.7 mph N/A   Clear
10:54 AM 29.5 °F 18.8 °F 18.9 °F 65% 29.90 in 10.0 mi West 13.8 mph 18.4 mph N/A   Mostly Cloudy
11:13 AM 29.3 °F 17.3 °F 19.0 °F 66% 29.89 in 10.0 mi West 17.3 mph 28.8 mph N/A   Overcast
11:34 AM 29.5 °F 16.8 °F 19.2 °F 66% 29.89 in 10.0 mi West 19.6 mph 26.5 mph N/A   Overcast
11:54 AM 29.7 °F 17.1 °F 19.2 °F 65% 29.88 in 10.0 mi West 19.6 mph 25.3 mph N/A   Overcast
12:13 PM 30.2 °F 17.4 °F 19.6 °F 65% 29.88 in 10.0 mi West 20.7 mph 26.5 mph N/A   Overcast
12:34 PM 31.3 °F 18.9 °F 20.1 °F 63% 29.87 in 10.0 mi West 20.7 mph 29.9 mph N/A   Overcast
12:54 PM 31.8 °F 19.6 °F 20.3 °F 62% 29.86 in 10.0 mi West 20.7 mph 28.8 mph N/A   Overcast
1:13 PM 31.3 °F 19.5 °F 20.1 °F 63% 29.85 in 10.0 mi West 18.4 mph 26.5 mph N/A   Mostly Cloudy
1:34 PM 32.0 °F 20.5 °F 20.5 °F 63% 29.84 in 10.0 mi West 18.4 mph 26.5 mph N/A   Scattered Clouds
1:54 PM 32.0 °F 19.8 °F 20.7 °F 63% 29.83 in 10.0 mi WSW 20.7 mph 27.6 mph N/A   Clear
2:13 PM 32.0 °F 21.2 °F 21.0 °F 64% 29.83 in 10.0 mi WSW 16.1 mph 27.6 mph N/A   Clear
2:34 PM 32.0 °F 19.8 °F 20.8 °F 63% 29.83 in 10.0 mi West 20.7 mph 26.5 mph N/A   Clear
2:54 PM 32.2 °F 21.1 °F 20.5 °F 62% 29.84 in 10.0 mi West 17.3 mph 23.0 mph N/A   Clear
3:13 PM 32.2 °F 21.1 °F 20.5 °F 62% 29.85 in 10.0 mi West 17.3 mph 23.0 mph N/A   Clear
3:34 PM 32.0 °F 19.5 °F 20.7 °F 63% 29.85 in 10.0 mi WSW 21.9 mph - N/A   Clear
3:54 PM 31.6 °F 20.4 °F 20.3 °F 63% 29.86 in 10.0 mi WSW 17.3 mph 28.8 mph N/A   Clear
4:13 PM 31.1 °F 18.3 °F 20.1 °F 64% 29.86 in 10.0 mi West 21.9 mph - N/A   Clear
4:34 PM 30.4 °F 18.4 °F 19.9 °F 65% 29.87 in 10.0 mi WSW 18.4 mph 26.5 mph N/A   Clear
4:54 PM 29.8 °F 17.3 °F 19.8 °F 66% 29.87 in 10.0 mi WSW 19.6 mph - N/A   Clear
5:13 PM 28.9 °F 17.3 °F 19.4 °F 68% 29.88 in 10.0 mi WSW 16.1 mph 23.0 mph N/A   Clear
5:34 PM 28.2 °F 16.3 °F 19.4 °F 70% 29.90 in 10.0 mi WSW 16.1 mph 20.7 mph N/A   Clear
5:53 PM 28.2 °F 16.3 °F 19.4 °F 70% 29.91 in 10.0 mi WSW 16.1 mph 20.7 mph N/A   Clear
6:13 PM 27.5 °F 16.8 °F 19.4 °F 72% 29.92 in 10.0 mi West 12.7 mph - N/A   Clear
6:34 PM 27.3 °F 15.6 °F 19.4 °F 72% 29.93 in 10.0 mi WSW 15.0 mph - N/A   Clear
6:54 PM 26.8 °F 14.9 °F 19.2 °F 73% 29.94 in 10.0 mi WSW 15.0 mph - N/A   Clear
7:13 PM 26.4 °F 14.5 °F 19.2 °F 74% 29.95 in 10.0 mi WSW 15.0 mph 19.6 mph N/A   Clear
7:34 PM 26.6 °F 13.8 °F 19.4 °F 74% 29.96 in 10.0 mi WSW 17.3 mph 21.9 mph N/A   Clear
7:53 PM 26.4 °F 13.6 °F 19.4 °F 75% 29.97 in 10.0 mi West 17.3 mph 23.0 mph N/A   Clear
8:13 PM 25.9 °F 14.3 °F 19.4 °F 76% 29.99 in 10.0 mi West 13.8 mph - N/A   Clear
8:34 PM 25.3 °F 14.1 °F 19.4 °F 78% 30.00 in 10.0 mi West 12.7 mph - N/A   Clear
8:53 PM 25.0 °F 14.8 °F 19.4 °F 79% 30.01 in 10.0 mi WSW 10.4 mph - N/A   Clear
9:13 PM 24.1 °F 15.2 °F 19.2 °F 82% 30.01 in 10.0 mi WSW 8.1 mph - N/A   Clear
9:34 PM 23.0 °F 14.7 °F 18.7 °F 84% 30.02 in 10.0 mi SW 6.9 mph - N/A   Scattered Clouds
9:53 PM 25.2 °F 15.7 °F 20.3 °F 82% 30.03 in 10.0 mi SW 9.2 mph - N/A   Mostly Cloudy
10:14 PM 25.2 °F 15.1 °F 20.3 °F 82% 30.03 in 10.0 mi SW 10.4 mph - N/A   Overcast
10:34 PM 25.5 °F 18.7 °F 20.3 °F 81% 30.04 in 10.0 mi WSW 5.8 mph - N/A   Overcast
10:53 PM 25.3 °F 16.7 °F 20.5 °F 82% 30.05 in 10.0 mi SW 8.1 mph - N/A   Overcast
11:14 PM 24.6 °F 15.1 °F 20.3 °F 84% 30.06 in 10.0 mi SW 9.2 mph - N/A   Overcast
11:34 PM 23.7 °F 14.0 °F 19.9 °F 85% 30.06 in 10.0 mi SW 9.2 mph - N/A   Overcast
11:53 PM 22.8 °F 13.6 °F 19.4 °F 87% 30.07 in 10.0 mi SW 8.1 mph - N/A   Overcast